CW7364 Weather Reports


Display with metric or nautical units.
time (UTC)temp
F
wind
direction
speed
MPH
gust
MPH
rain 1hr
in
rain 24hr
in
rain mn
in
humidity
%
barometer
mb
20260504150517 69 203 8.0 15.0 0.00 0.00 0.00 72 1010.7
20260504140516 66 180 11.0 16.0 0.00 0.00 0.00 74 1010.9
20260504130516 62 180 7.0 11.0 0.00 0.00 0.00 77 1011.1
20260504110516 60 180 4.0 7.0 0.00 0.00 0.00 74 1011.1
20260504100515 61 180 5.0 9.0 0.00 0.00 0.00 70 1011.6
20260504081517 60 158 3.0 7.0 0.00 0.00 0.00 73 1012.3
20260504080517 60 158 2.0 4.0 0.00 0.00 0.00 73 1012.3
20260504050517 63 180 3.0 5.0 0.00 0.00 0.00 65 1014.3
20260504045517 63 180 3.0 5.0 0.00 0.00 0.00 65 1014.5
20260504044517 64 203 2.0 6.0 0.00 0.00 0.00 65 1014.6
20260504043517 64 180 2.0 4.0 0.00 0.00 0.00 64 1014.6
20260504042517 64 180 2.0 5.0 0.00 0.00 0.00 64 1014.7
20260504041517 65 180 2.0 4.0 0.00 0.00 0.00 63 1014.7
20260504040517 65 180 2.0 3.0 0.00 0.00 0.00 62 1014.8
20260504035517 65 180 2.0 4.0 0.00 0.00 0.00 62 1014.9
20260504034517 65 203 3.0 7.0 0.00 0.00 0.00 61 1014.7
20260504033517 65 180 3.0 4.0 0.00 0.00 0.00 61 1014.5
20260504032519 66 180 2.0 4.0 0.00 0.00 0.00 60 1014.6
20260504031517 66 180 2.0 4.0 0.00 0.00 0.00 60 1014.5
20260504030517 66 203 2.0 4.0 0.00 0.00 0.00 59 1014.4
20260504025517 67 203 2.0 4.0 0.00 0.00 0.00 58 1014.5
20260504024517 67 180 3.0 4.0 0.00 0.00 0.00 57 1014.3
20260504023537 68 180 4.0 7.0 0.00 0.00 0.00 57 1014.2
20260504022517 68 180 4.0 9.0 0.00 0.00 0.00 57 1014.0
20260504021517 67 158 1.0 3.0 0.00 0.00 0.00 58 1014.0
20260504020517 68 135 2.0 4.0 0.00 0.00 0.00 56 1013.9
20260504015537 69 158 2.0 4.0 0.00 0.00 0.00 55 1013.8
20260504014517 69 158 2.0 3.0 0.00 0.00 0.00 54 1013.7
20260504013517 70 180 2.0 3.0 0.00 0.00 0.00 52 1013.6
20260504012516 71 180 2.0 3.0 0.00 0.00 0.00 51 1013.6
20260504011517 72 180 2.0 4.0 0.00 0.00 0.00 50 1013.5
20260504010517 73 180 2.0 5.0 0.00 0.00 0.00 48 1013.5
20260504005516 73 203 2.0 3.0 0.00 0.00 0.00 47 1013.4
20260504004516 74 203 2.0 3.0 0.00 0.00 0.00 45 1013.4
20260504003516 75 203 3.0 4.0 0.00 0.00 0.00 43 1013.4
20260504002516 76 203 3.0 7.0 0.00 0.00 0.00 42 1013.5
20260504001516 77 203 6.0 9.0 0.00 0.00 0.00 40 1013.6
20260504000516 77 180 5.0 11.0 0.00 0.00 0.00 41 1013.6
20260503235536 78 203 5.0 11.0 0.00 0.00 0.00 40 1013.8
20260503234516 78 203 5.0 9.0 0.00 0.00 0.00 39 1013.8
20260503233516 79 203 6.0 17.0 0.00 0.00 0.00 38 1013.8
20260503232536 79 203 4.0 6.0 0.00 0.00 0.00 38 1013.9
20260503231516 79 203 6.0 11.0 0.00 0.00 0.00 39 1014.0
20260503230516 79 203 5.0 9.0 0.00 0.00 0.00 39 1014.0
20260503225516 79 203 7.0 15.0 0.00 0.00 0.00 38 1014.2
20260503224516 80 203 4.0 7.0 0.00 0.00 0.00 38 1014.2
20260503223516 80 203 5.0 14.0 0.00 0.00 0.00 37 1014.3
20260503222516 80 225 4.0 10.0 0.00 0.00 0.00 38 1014.3
20260503221516 80 180 7.0 18.0 0.00 0.00 0.00 35 1014.3
20260503220536 81 203 6.0 12.0 0.00 0.00 0.00 38 1014.6
20260503215516 81 203 5.0 9.0 0.00 0.00 0.00 40 1014.8
20260503214516 80 203 8.0 14.0 0.00 0.00 0.00 38 1014.9
20260503213516 81 225 3.0 9.0 0.00 0.00 0.00 40 1015.2
20260503212515 80 203 6.0 13.0 0.00 0.00 0.00 38 1015.3
20260503211516 81 203 6.0 13.0 0.00 0.00 0.00 39 1015.4
20260503210515 81 203 4.0 8.0 0.00 0.00 0.00 40 1015.6
20260503205515 80 203 9.0 15.0 0.00 0.00 0.00 38 1015.8
20260503204535 80 203 6.0 14.0 0.00 0.00 0.00 37 1016.1
20260503203555 80 180 9.0 16.0 0.00 0.00 0.00 36 1016.2
20260503202515 82 203 6.0 10.0 0.00 0.00 0.00 36 1016.4
20260503201516 82 203 3.0 7.0 0.00 0.00 0.00 40 1016.6
20260503200516 82 225 2.0 5.0 0.00 0.00 0.00 40 1016.8
20260503195536 82 225 2.0 4.0 0.00 0.00 0.00 38 1017.0
20260503194515 82 203 3.0 7.0 0.00 0.00 0.00 39 1017.1
20260503193536 81 225 5.0 13.0 0.00 0.00 0.00 39 1017.4
20260503192535 81 225 2.0 5.0 0.00 0.00 0.00 42 1017.4
20260503191518 81 225 3.0 6.0 0.00 0.00 0.00 46 1017.6
20260503190537 80 203 5.0 12.0 0.00 0.00 0.00 46 1017.7
20260503185517 80 203 6.0 12.0 0.00 0.00 0.00 45 1017.9
20260503184517 80 225 3.0 8.0 0.00 0.00 0.00 46 1017.9
20260503183517 80 225 4.0 9.0 0.00 0.00 0.00 46 1018.2
20260503182517 80 225 3.0 6.0 0.00 0.00 0.00 48 1018.3
20260503181517 80 225 3.0 8.0 0.00 0.00 0.00 48 1018.5
20260503180557 79 225 4.0 7.0 0.00 0.00 0.00 48 1018.7
20260503175517 79 225 3.0 6.0 0.00 0.00 0.00 49 1019.0
20260503174517 79 225 3.0 8.0 0.00 0.00 0.00 51 1019.1
20260503173517 79 225 2.0 4.0 0.00 0.00 0.00 53 1019.2
20260503172557 78 225 2.0 6.0 0.00 0.00 0.00 54 1019.4
20260503171537 78 225 4.0 6.0 0.00 0.00 0.00 51 1019.6
20260503170537 78 225 3.0 8.0 0.00 0.00 0.00 53 1019.8